This demonstration page uses our WeatherBlox Daily Observations layout. Learn more.

Left ArrowRight Arrow

38.88101, -77.10428

Hourly Observations for February 3, 2021

Temp ( °F °C ) Dew Point ( °F °C ) Humidity (%) Winds ( mph kmh ) Pressure ( in mb ) Visibility ( mi km ) Precip ( " mm )
12:52 am 00:52 Cloudy 32 0 22 -5.6 66 66 NW 15 24 29.60 1003 10 16 0.00 0.00
1:52 am 01:52 Cloudy 32 0 24 -4.4 73 73 NW 14 22 29.61 1003 10 16 0.00 0.00
2:52 am 02:52 Cloudy 34 1.1 24 -4.4 67 67 NW 20 31 29.60 1003 10 16 0.00 0.00
3:52 am 03:52 Cloudy 34 1.1 24 -4.4 67 67 NW 14 22 29.61 1003 10 16 0.00 0.00
4:52 am 04:52 Cloudy 34 1.1 25 -3.9 70 70 NW 16 26 29.61 1003 10 16 0.00 0.00
5:52 am 05:52 Cloudy 33 0.6 25 -3.9 72 72 NW 16 26 29.63 1003 10 16 0.00 0.00
6:52 am 06:52 Mostly Cloudy 33 0.6 25 -3.9 72 72 NW 12 19 29.65 1004 10 16 0.00 0.00
7:52 am 07:52 Cloudy 34 1.1 24 -4.4 67 67 NW 14 22 29.66 1005 10 16 0.00 0.00
8:52 am 08:52 Mostly Cloudy 35 1.7 23 -5 61 61 NW 15 24 29.68 1005 10 16 0.00 0.00
9:52 am 09:52 Cloudy 36 2.2 22 -5.6 57 57 NW 14 22 29.69 1005 10 16 0.00 0.00
10:52 am 10:52 Cloudy 36 2.2 22 -5.6 57 57 NW 13 20 29.70 1006 10 16 0.00 0.00
11:52 am 11:52 Cloudy 37 2.8 23 -5 57 57 NW 18 30 29.69 1005 10 16 0.00 0.00
12:52 pm 12:52 Cloudy 39 3.9 23 -5 53 53 NW 23 37 29.68 1005 10 16 0.00 0.00
1:52 pm 13:52 Mostly Cloudy 40 4.4 24 -4.4 53 53 NNW 17 28 29.68 1005 10 16 0.00 0.00
2:52 pm 14:52 Mostly Cloudy 41 5 24 -4.4 51 51 NW 18 30 29.69 1005 10 16 0.00 0.00
3:52 pm 15:52 Mostly Cloudy 42 5.6 25 -3.9 51 51 NNW 16 26 29.70 1006 10 16 0.00 0.00
4:52 pm 16:52 Partly Cloudy 42 5.6 24 -4.4 49 49 NW 16 26 29.72 1007 10 16 0.00 0.00
5:52 pm 17:52 Partly Cloudy 41 5 24 -4.4 51 51 WNW 9 15 29.75 1007 10 16 0.00 0.00
6:52 pm 18:52 Mostly Clear 41 5 23 -5 49 49 WNW 12 19 29.77 1008 10 16 0.00 0.00
7:52 pm 19:52 Mostly Clear 39 3.9 22 -5.6 50 50 WNW 16 26 29.80 1009 10 16 0.00 0.00
8:52 pm 20:52 Mostly Clear 38 3.3 21 -6.1 51 51 WNW 12 19 29.83 1010 10 16 0.00 0.00
9:52 pm 21:52 Mostly Clear 37 2.8 19 -7.2 48 48 WNW 17 28 29.84 1011 10 16 0.00 0.00
10:52 pm 22:52 Clear 35 1.7 18 -7.8 50 50 NW 13 20 29.87 1012 10 16 0.00 0.00
11:52 pm 23:52 Clear 35 1.7 16 -8.9 46 46 NW 17 28 29.89 1012 10 16 0.00 0.00

Powered by AerisWeather